| time (UTC) | temp F | wind direction | speed knots | gust knots | rain 1hr in | rain 24hr in | rain mn in | humidity % | barometer mb |
| 20260902165535 | 89 | 166 | 0.0 | 2.6 | 0.00 | 0.00 | 0.00 | 38 | 1020.7 |
| 20260902165019 | 87 | 178 | 0.0 | 9.6 | 0.00 | 0.00 | 0.00 | 40 | 1021.1 |
| 20260902164516 | 87 | 182 | 0.0 | 9.6 | 0.00 | 0.00 | 0.00 | 40 | 1021.1 |
| 20260902163956 | 88 | 212 | 0.0 | 3.5 | 0.00 | 0.00 | 0.00 | 39 | 1021.4 |
| 20260902163451 | 87 | 212 | 0.0 | 2.6 | 0.00 | 0.00 | 0.00 | 40 | 1021.1 |
| 20260902162945 | 87 | 123 | 0.0 | 2.6 | 0.00 | 0.00 | 0.00 | 41 | 1021.4 |
| 20260902162435 | 87 | 186 | 0.0 | 7.0 | 0.00 | 0.00 | 0.00 | 41 | 1021.1 |
| 20260902161929 | 86 | 188 | 0.0 | 7.0 | 0.00 | 0.00 | 0.00 | 42 | 1021.1 |
| 20260902161427 | 85 | 180 | 0.0 | 7.0 | 0.00 | 0.00 | 0.00 | 42 | 1021.1 |
| 20260902160920 | 86 | 188 | 3.5 | 6.1 | 0.00 | 0.00 | 0.00 | 43 | 1021.1 |
| 20260902160421 | 85 | 183 | 0.0 | 8.7 | 0.00 | 0.00 | 0.00 | 43 | 1021.1 |
| 20260902155916 | 84 | 191 | 0.0 | 8.7 | 0.00 | 0.00 | 0.00 | 44 | 1021.1 |
| 20260902155358 | 83 | 185 | 0.0 | 7.8 | 0.00 | 0.00 | 0.00 | 45 | 1021.1 |
| 20260902154856 | 83 | 179 | 0.0 | 7.8 | 0.00 | 0.00 | 0.00 | 45 | 1021.1 |
| 20260902154342 | 83 | 188 | 0.0 | 6.1 | 0.00 | 0.00 | 0.00 | 46 | 1021.1 |
| 20260902153839 | 82 | 126 | 0.9 | 11.3 | 0.00 | 0.00 | 0.00 | 46 | 1021.1 |
| 20260902153335 | 81 | 209 | 0.0 | 8.7 | 0.00 | 0.00 | 0.00 | 47 | 1021.1 |
| 20260902152836 | 81 | 115 | 3.5 | 7.0 | 0.00 | 0.00 | 0.00 | 48 | 1021.1 |
| 20260902152521 | 81 | 189 | 0.9 | 7.8 | 0.00 | 0.00 | 0.00 | 49 | 1021.1 |
| 20260902152410 | 81 | 180 | 0.0 | 7.0 | 0.00 | 0.00 | 0.00 | 48 | 1021.4 |
| 20260902151322 | 81 | 183 | 1.7 | 7.8 | 0.00 | 0.00 | 0.00 | 49 | 1021.1 |
| 20260902150820 | 81 | 177 | 3.5 | 8.7 | 0.00 | 0.00 | 0.00 | 49 | 1021.4 |
| 20260902150315 | 80 | 162 | 0.9 | 9.6 | 0.00 | 0.00 | 0.00 | 50 | 1021.1 |
| 20260902150028 | 79 | 188 | 0.0 | 9.6 | 0.00 | 0.00 | 0.00 | 52 | 1021.1 |
| 20260902145252 | 79 | 196 | 0.0 | 7.8 | 0.00 | 0.00 | 0.00 | 52 | 1020.7 |
| 20260902144742 | 79 | 215 | 0.0 | 7.0 | 0.00 | 0.00 | 0.00 | 52 | 1021.1 |
| 20260902144235 | 78 | 187 | 2.6 | 7.0 | 0.00 | 0.00 | 0.00 | 53 | 1021.1 |
| 20260902143939 | 79 | 170 | 0.0 | 5.2 | 0.00 | 0.00 | 0.00 | 52 | 1021.1 |
| 20260902143430 | 78 | 178 | 1.7 | 5.2 | 0.00 | 0.00 | 0.00 | 53 | 1021.1 |
| 20260902142710 | 78 | 141 | 0.0 | 5.2 | 0.00 | 0.00 | 0.00 | 53 | 1021.1 |
| 20260902142151 | 77 | 172 | 1.7 | 5.2 | 0.00 | 0.00 | 0.00 | 54 | 1021.1 |
| 20260902141646 | 77 | 205 | 0.0 | 5.2 | 0.00 | 0.00 | 0.00 | 55 | 1020.7 |
| 20260902141141 | 77 | 179 | 0.0 | 1.7 | 0.00 | 0.00 | 0.00 | 55 | 1021.1 |
| 20260902140636 | 76 | 129 | 0.0 | 0.0 | 0.00 | 0.00 | 0.00 | 55 | 1021.4 |
| 20260902140134 | 75 | 178 | 0.0 | 0.0 | 0.00 | 0.00 | 0.00 | 57 | 1021.1 |
| 20260902135632 | 75 | 176 | 0.0 | 0.0 | 0.00 | 0.00 | 0.00 | 58 | 1021.1 |
| 20260902135129 | 75 | 176 | 0.0 | 0.0 | 0.00 | 0.00 | 0.00 | 60 | 1021.1 |
| 20260902134620 | 75 | 176 | 0.0 | 0.0 | 0.00 | 0.00 | 0.00 | 60 | 1021.1 |
| 20260902134107 | 75 | 166 | 0.0 | 0.0 | 0.00 | 0.00 | 0.00 | 59 | 1021.1 |
| 20260902133608 | 74 | 161 | 0.0 | 0.0 | 0.00 | 0.00 | 0.00 | 59 | 1021.1 |
| 20260902133104 | 74 | 159 | 0.0 | 0.0 | 0.00 | 0.00 | 0.00 | 61 | 1021.1 |
| 20260902132604 | 73 | 159 | 0.0 | 0.0 | 0.00 | 0.00 | 0.00 | 62 | 1021.1 |
| 20260902132103 | 73 | 159 | 0.0 | 0.0 | 0.00 | 0.00 | 0.00 | 63 | 1020.7 |
| 20260902131559 | 72 | 158 | 0.0 | 0.0 | 0.00 | 0.00 | 0.00 | 64 | 1021.1 |
| 20260902131055 | 72 | 158 | 0.0 | 0.0 | 0.00 | 0.00 | 0.00 | 65 | 1020.7 |
| 20260902130554 | 71 | 156 | 0.0 | 0.0 | 0.00 | 0.00 | 0.00 | 66 | 1020.7 |
| 20260902130045 | 71 | 156 | 0.0 | 0.0 | 0.00 | 0.00 | 0.00 | 67 | 1020.4 |
| 20260902125545 | 70 | 156 | 0.0 | 0.0 | 0.00 | 0.00 | 0.00 | 68 | 1020.7 |
| 20260902125041 | 70 | 157 | 0.0 | 0.0 | 0.00 | 0.00 | 0.00 | 68 | 1020.4 |
| 20260902124533 | 70 | 157 | 0.0 | 0.0 | 0.00 | 0.00 | 0.00 | 68 | 1020.4 |
| 20260902124028 | 70 | 157 | 0.0 | 0.0 | 0.00 | 0.00 | 0.00 | 68 | 1020.4 |
| 20260902123528 | 70 | 156 | 0.0 | 0.0 | 0.00 | 0.00 | 0.00 | 68 | 1020.4 |
| 20260902123014 | 70 | 156 | 0.0 | 0.0 | 0.00 | 0.00 | 0.00 | 69 | 1020.0 |
| 20260902122808 | 69 | 155 | 0.0 | 0.0 | 0.00 | 0.00 | 0.00 | 69 | 1020.0 |
| 20260902122705 | 69 | 155 | 0.0 | 0.0 | 0.00 | 0.00 | 0.00 | 70 | 1020.0 |
| 20260902122050 | 69 | 155 | 0.0 | 0.0 | 0.00 | 0.00 | 0.00 | 69 | 1020.0 |
| 20260902120959 | 69 | 155 | 0.0 | 0.0 | 0.00 | 0.00 | 0.00 | 70 | 1020.0 |
| 20260902120456 | 69 | 155 | 0.0 | 0.0 | 0.00 | 0.00 | 0.00 | 71 | 1020.0 |
| 20260902115947 | 69 | 155 | 0.0 | 0.0 | 0.00 | 0.00 | 0.00 | 70 | 1019.7 |
| 20260902115432 | 69 | 155 | 0.0 | 0.0 | 0.00 | 0.00 | 0.00 | 69 | 1019.7 |
| 20260902114935 | 69 | 155 | 0.0 | 0.0 | 0.00 | 0.00 | 0.00 | 68 | 1019.7 |
| 20260902114419 | 70 | 155 | 0.0 | 0.0 | 0.00 | 0.00 | 0.00 | 68 | 1019.7 |
| 20260902113914 | 70 | 155 | 0.0 | 0.0 | 0.00 | 0.00 | 0.00 | 68 | 1020.0 |
| 20260902113413 | 70 | 155 | 0.0 | 0.0 | 0.00 | 0.00 | 0.00 | 67 | 1019.7 |
| 20260902112907 | 70 | 155 | 0.0 | 0.0 | 0.00 | 0.00 | 0.00 | 67 | 1019.7 |
| 20260902112617 | 70 | 155 | 0.0 | 0.0 | 0.00 | 0.00 | 0.00 | 67 | 1020.0 |
| 20260902112119 | 70 | 155 | 0.0 | 0.0 | 0.00 | 0.00 | 0.00 | 67 | 1019.7 |
| 20260902111824 | 70 | 155 | 0.0 | 0.0 | 0.00 | 0.00 | 0.00 | 66 | 1019.7 |
| 20260902111100 | 71 | 155 | 0.0 | 0.0 | 0.00 | 0.00 | 0.00 | 65 | 1020.0 |
| 20260902110320 | 71 | 155 | 0.0 | 0.0 | 0.00 | 0.00 | 0.00 | 65 | 1020.0 |
| 20260902105815 | 71 | 155 | 0.0 | 0.0 | 0.00 | 0.00 | 0.00 | 65 | 1020.0 |
| 20260902105311 | 71 | 160 | 0.0 | 0.0 | 0.00 | 0.00 | 0.00 | 65 | 1019.7 |
| 20260902105016 | 71 | 160 | 0.0 | 0.0 | 0.00 | 0.00 | 0.00 | 65 | 1020.0 |
| 20260902104513 | 71 | 160 | 0.0 | 0.0 | 0.00 | 0.00 | 0.00 | 64 | 1020.0 |
| 20260902104237 | 71 | 141 | 0.0 | 0.0 | 0.00 | 0.00 | 0.00 | 64 | 1020.0 |
| 20260902103238 | 71 | 140 | 0.0 | 0.0 | 0.00 | 0.00 | 0.00 | 63 | 1020.0 |
| 20260902102727 | 72 | 140 | 0.0 | 0.0 | 0.00 | 0.00 | 0.00 | 62 | 1020.0 |
| 20260902102217 | 72 | 140 | 0.0 | 0.0 | 0.00 | 0.00 | 0.00 | 62 | 1020.0 |
| 20260902101708 | 72 | 143 | 0.0 | 0.0 | 0.00 | 0.00 | 0.00 | 62 | 1019.7 |
| 20260902101208 | 72 | 131 | 0.0 | 0.0 | 0.00 | 0.00 | 0.00 | 61 | 1019.7 |
| 20260902100926 | 72 | 149 | 0.0 | 0.0 | 0.00 | 0.00 | 0.00 | 60 | 1020.0 |
| 20260902100157 | 72 | 146 | 0.0 | 0.0 | 0.00 | 0.00 | 0.00 | 60 | 1020.0 |
| 20260902095653 | 72 | 147 | 0.0 | 0.0 | 0.00 | 0.00 | 0.00 | 60 | 1020.0 |
| 20260902095408 | 72 | 148 | 0.0 | 0.0 | 0.00 | 0.00 | 0.00 | 59 | 1019.7 |
| 20260902094642 | 72 | 148 | 0.0 | 0.0 | 0.00 | 0.00 | 0.00 | 59 | 1020.0 |
| 20260902094140 | 72 | 149 | 0.0 | 0.0 | 0.00 | 0.00 | 0.00 | 58 | 1020.0 |
| 20260902093633 | 72 | 154 | 0.0 | 0.0 | 0.00 | 0.00 | 0.00 | 58 | 1020.0 |
| 20260902093339 | 72 | 172 | 0.0 | 0.0 | 0.00 | 0.00 | 0.00 | 57 | 1020.0 |
| 20260902093225 | 72 | 170 | 0.0 | 0.0 | 0.00 | 0.00 | 0.00 | 57 | 1020.0 |
| 20260902092125 | 72 | 150 | 0.0 | 0.0 | 0.00 | 0.00 | 0.00 | 56 | 1020.0 |
| 20260902091839 | 73 | 143 | 0.0 | 0.0 | 0.00 | 0.00 | 0.00 | 56 | 1019.7 |
| 20260902091111 | 72 | 150 | 0.0 | 0.0 | 0.00 | 0.00 | 0.00 | 56 | 1020.0 |
| 20260902090601 | 72 | 150 | 0.0 | 0.0 | 0.00 | 0.00 | 0.00 | 55 | 1020.0 |
| 20260902090051 | 73 | 149 | 0.0 | 0.0 | 0.00 | 0.00 | 0.00 | 55 | 1020.4 |
| 20260902085542 | 73 | 149 | 0.0 | 0.0 | 0.00 | 0.00 | 0.00 | 54 | 1020.0 |
| 20260902085042 | 73 | 149 | 0.0 | 0.0 | 0.00 | 0.00 | 0.00 | 54 | 1020.0 |
| 20260902084529 | 73 | 149 | 0.0 | 0.0 | 0.00 | 0.00 | 0.00 | 53 | 1019.7 |
| 20260902084027 | 73 | 149 | 0.0 | 0.0 | 0.00 | 0.00 | 0.00 | 53 | 1020.0 |
| 20260902083516 | 73 | 149 | 0.0 | 0.0 | 0.00 | 0.00 | 0.00 | 53 | 1020.0 |
| 20260902083016 | 74 | 149 | 0.0 | 0.0 | 0.00 | 0.00 | 0.00 | 52 | 1020.0 |
| 20260902082515 | 74 | 144 | 0.0 | 0.0 | 0.00 | 0.00 | 0.00 | 52 | 1020.0 |
| 20260902082014 | 74 | 142 | 0.0 | 0.0 | 0.00 | 0.00 | 0.00 | 51 | 1020.0 |
| 20260902081741 | 74 | 150 | 0.0 | 0.0 | 0.00 | 0.00 | 0.00 | 51 | 1020.0 |
| 20260902081011 | 74 | 159 | 0.0 | 0.0 | 0.00 | 0.00 | 0.00 | 51 | 1020.0 |
| 20260902080507 | 74 | 161 | 0.0 | 0.0 | 0.00 | 0.00 | 0.00 | 52 | 1020.0 |
| 20260902080004 | 74 | 154 | 0.0 | 1.7 | 0.00 | 0.00 | 0.00 | 51 | 1020.4 |
| 20260902075454 | 74 | 150 | 0.0 | 1.7 | 0.00 | 0.00 | 0.00 | 50 | 1020.4 |
| 20260902074945 | 74 | 130 | 0.0 | 0.0 | 0.00 | 0.00 | 0.00 | 50 | 1020.0 |
| 20260902074443 | 74 | 137 | 0.0 | 2.6 | 0.00 | 0.00 | 0.00 | 50 | 1020.4 |
| 20260902073935 | 75 | 142 | 0.0 | 2.6 | 0.00 | 0.00 | 0.00 | 50 | 1020.4 |
| 20260902073424 | 75 | 142 | 0.0 | 2.6 | 0.00 | 0.00 | 0.00 | 50 | 1020.4 |
| 20260902073142 | 75 | 153 | 0.0 | 2.6 | 0.00 | 0.00 | 0.00 | 49 | 1020.4 |
| 20260902072401 | 76 | 142 | 0.0 | 0.9 | 0.00 | 0.00 | 0.00 | 49 | 1020.7 |
| 20260902072115 | 76 | 131 | 0.0 | 5.2 | 0.00 | 0.00 | 0.00 | 48 | 1020.7 |
| 20260902071350 | 76 | 158 | 0.0 | 5.2 | 0.00 | 0.00 | 0.00 | 48 | 1020.4 |
| 20260902070846 | 76 | 142 | 0.9 | 2.6 | 0.00 | 0.00 | 0.00 | 47 | 1020.4 |
| 20260902070333 | 77 | 138 | 0.0 | 3.5 | 0.00 | 0.00 | 0.00 | 47 | 1020.4 |
| 20260902065813 | 77 | 137 | 0.0 | 3.5 | 0.00 | 0.00 | 0.00 | 46 | 1020.7 |
| 20260902065312 | 78 | 138 | 0.0 | 3.5 | 0.00 | 0.00 | 0.00 | 45 | 1020.4 |
| 20260902064811 | 78 | 146 | 0.0 | 0.9 | 0.00 | 0.00 | 0.00 | 45 | 1020.4 |
| 20260902064300 | 78 | 139 | 0.0 | 3.5 | 0.00 | 0.00 | 0.00 | 45 | 1020.7 |
| 20260902063758 | 78 | 129 | 0.0 | 3.5 | 0.00 | 0.00 | 0.00 | 45 | 1020.7 |
| 20260902063259 | 78 | 144 | 0.0 | 0.9 | 0.00 | 0.00 | 0.00 | 46 | 1020.4 |
| 20260902062749 | 78 | 17 | 0.0 | 0.0 | 0.00 | 0.00 | 0.00 | 45 | 1020.4 |
| 20260902062249 | 78 | 343 | 0.0 | 0.0 | 0.00 | 0.00 | 0.00 | 45 | 1020.4 |
| 20260902062004 | 78 | 337 | 0.0 | 0.0 | 0.00 | 0.00 | 0.00 | 46 | 1020.7 |
| 20260902061236 | 78 | 337 | 0.0 | 0.0 | 0.00 | 0.00 | 0.00 | 46 | 1020.4 |
| 20260902060715 | 77 | 336 | 0.0 | 0.0 | 0.00 | 0.00 | 0.00 | 48 | 1020.7 |
| 20260902060434 | 76 | 336 | 0.0 | 0.0 | 0.00 | 0.00 | 0.00 | 50 | 1021.1 |
| 20260902055928 | 76 | 336 | 0.0 | 1.7 | 0.00 | 0.00 | 0.00 | 50 | 1020.7 |
| 20260902055155 | 77 | 336 | 0.0 | 1.7 | 0.00 | 0.00 | 0.00 | 50 | 1020.4 |
| 20260902054637 | 77 | 336 | 0.0 | 0.0 | 0.00 | 0.00 | 0.00 | 50 | 1020.4 |
| 20260902054117 | 76 | 336 | 0.0 | 0.0 | 0.00 | 0.00 | 0.00 | 50 | 1020.4 |
| 20260902053610 | 76 | 336 | 0.0 | 0.0 | 0.00 | 0.00 | 0.00 | 50 | 1020.4 |
| 20260902053332 | 77 | 336 | 0.0 | 0.0 | 0.00 | 0.00 | 0.00 | 50 | 1020.4 |
| 20260902052830 | 77 | 336 | 0.0 | 0.0 | 0.00 | 0.00 | 0.00 | 50 | 1020.4 |
| 20260902052105 | 77 | 334 | 0.0 | 0.0 | 0.00 | 0.00 | 0.00 | 50 | 1020.4 |
| 20260902051555 | 77 | 334 | 0.0 | 0.0 | 0.00 | 0.00 | 0.00 | 49 | 1020.4 |
| 20260902051045 | 77 | 334 | 0.0 | 0.0 | 0.00 | 0.00 | 0.00 | 49 | 1020.4 |
| 20260902050544 | 77 | 334 | 0.0 | 0.0 | 0.00 | 0.00 | 0.00 | 49 | 1020.4 |
| 20260902050036 | 77 | 334 | 0.0 | 0.0 | 0.00 | 0.00 | 0.00 | 49 | 1020.4 |
| 20260902045535 | 78 | 334 | 0.0 | 0.9 | 0.00 | 0.00 | 0.00 | 49 | 1020.7 |
| 20260902045017 | 78 | 334 | 0.0 | 0.9 | 0.00 | 0.00 | 0.00 | 49 | 1020.7 |
| 20260902044502 | 78 | 331 | 0.0 | 0.0 | 0.00 | 0.00 | 0.00 | 49 | 1020.7 |
| 20260902043955 | 78 | 329 | 0.0 | 0.0 | 0.00 | 0.00 | 0.00 | 50 | 1020.7 |
| 20260902043446 | 78 | 325 | 0.0 | 0.0 | 0.00 | 0.00 | 0.00 | 50 | 1020.7 |
| 20260902042944 | 78 | 324 | 0.0 | 0.0 | 0.00 | 0.00 | 0.00 | 50 | 1020.7 |
| 20260902042431 | 77 | 324 | 0.0 | 0.0 | 0.00 | 0.00 | 0.00 | 51 | 1020.4 |
| 20260902041932 | 78 | 324 | 0.0 | 0.0 | 0.00 | 0.00 | 0.00 | 52 | 1020.4 |
| 20260902041418 | 77 | 324 | 0.0 | 0.0 | 0.00 | 0.00 | 0.00 | 52 | 1020.4 |
| 20260902040908 | 77 | 324 | 0.0 | 0.0 | 0.00 | 0.00 | 0.00 | 52 | 1020.4 |
| 20260902040403 | 77 | 324 | 0.0 | 0.0 | 0.00 | 0.00 | 0.00 | 52 | 1020.7 |
| 20260902035855 | 78 | 324 | 0.0 | 0.0 | 0.00 | 0.00 | 0.00 | 52 | 1020.4 |
| 20260902035352 | 78 | 324 | 0.0 | 0.0 | 0.00 | 0.00 | 0.00 | 52 | 1020.4 |
| 20260902034852 | 78 | 324 | 0.0 | 0.0 | 0.00 | 0.00 | 0.00 | 51 | 1020.4 |
| 20260902034346 | 78 | 324 | 0.0 | 0.0 | 0.00 | 0.00 | 0.00 | 51 | 1020.4 |
| 20260902033844 | 78 | 323 | 0.0 | 0.0 | 0.00 | 0.00 | 0.00 | 51 | 1020.4 |
| 20260902033343 | 78 | 315 | 0.0 | 0.0 | 0.00 | 0.00 | 0.00 | 52 | 1020.4 |
| 20260902032841 | 78 | 315 | 0.0 | 0.0 | 0.00 | 0.00 | 0.00 | 52 | 1020.4 |
| 20260902032339 | 78 | 315 | 0.0 | 0.0 | 0.00 | 0.00 | 0.00 | 52 | 1020.0 |
| 20260902031835 | 77 | 311 | 0.0 | 0.0 | 0.00 | 0.00 | 0.00 | 52 | 1020.4 |
| 20260902031335 | 77 | 270 | 0.0 | 0.0 | 0.00 | 0.00 | 0.00 | 53 | 1020.4 |
| 20260902031047 | 77 | 270 | 0.0 | 0.0 | 0.00 | 0.00 | 0.00 | 52 | 1020.0 |
| 20260902030321 | 77 | 270 | 0.0 | 0.0 | 0.00 | 0.00 | 0.00 | 52 | 1020.0 |
| 20260902025815 | 77 | 270 | 0.0 | 0.0 | 0.00 | 0.00 | 0.00 | 52 | 1020.0 |
| 20260902025306 | 77 | 270 | 0.0 | 0.0 | 0.00 | 0.00 | 0.00 | 52 | 1020.0 |
| 20260902024752 | 76 | 270 | 0.0 | 0.0 | 0.00 | 0.00 | 0.00 | 52 | 1020.0 |
| 20260902024250 | 77 | 270 | 0.0 | 0.0 | 0.00 | 0.00 | 0.00 | 52 | 1020.0 |
| 20260902023737 | 77 | 270 | 0.0 | 0.0 | 0.00 | 0.00 | 0.00 | 51 | 1020.0 |
| 20260902023234 | 77 | 270 | 0.0 | 0.0 | 0.00 | 0.00 | 0.00 | 51 | 1020.0 |
| 20260902022731 | 77 | 270 | 0.0 | 0.0 | 0.00 | 0.00 | 0.00 | 51 | 1019.7 |
| 20260902022230 | 77 | 269 | 0.0 | 0.0 | 0.00 | 0.00 | 0.00 | 52 | 1019.7 |
| 20260902021710 | 77 | 269 | 0.0 | 0.0 | 0.00 | 0.00 | 0.00 | 52 | 1019.7 |
| 20260902021204 | 78 | 269 | 0.0 | 0.0 | 0.00 | 0.00 | 0.00 | 51 | 1019.7 |
| 20260902020643 | 78 | 269 | 0.0 | 0.0 | 0.00 | 0.00 | 0.00 | 51 | 1019.4 |
| 20260902020142 | 78 | 255 | 0.0 | 0.0 | 0.00 | 0.00 | 0.00 | 51 | 1019.4 |
| 20260902015638 | 78 | 262 | 0.0 | 0.0 | 0.00 | 0.00 | 0.00 | 51 | 1019.0 |
| 20260902015132 | 78 | 258 | 0.0 | 0.0 | 0.00 | 0.00 | 0.00 | 51 | 1019.4 |
| 20260902014632 | 78 | 292 | 0.0 | 6.1 | 0.00 | 0.00 | 0.00 | 51 | 1019.0 |
| 20260902014111 | 78 | 316 | 0.0 | 6.1 | 0.00 | 0.00 | 0.00 | 51 | 1019.4 |
| 20260902014054 | 78 | 305 | 0.0 | 0.9 | 0.00 | 0.00 | 0.00 | 51 | 1019.4 |
| 20260902013320 | 78 | 256 | 0.0 | 7.8 | 0.00 | 0.00 | 0.00 | 52 | 1019.0 |
| 20260902012541 | 78 | 312 | 0.0 | 7.8 | 0.00 | 0.00 | 0.00 | 51 | 1019.0 |
| 20260902012036 | 79 | 226 | 0.0 | 6.1 | 0.00 | 0.00 | 0.00 | 50 | 1019.0 |
| 20260902011530 | 79 | 207 | 0.9 | 6.1 | 0.00 | 0.00 | 0.00 | 49 | 1019.4 |
| 20260902011015 | 80 | 227 | 0.0 | 7.0 | 0.00 | 0.00 | 0.00 | 47 | 1019.4 |
| 20260902010505 | 81 | 230 | 0.9 | 7.0 | 0.00 | 0.00 | 0.00 | 46 | 1019.0 |
| 20260902005944 | 83 | 209 | 0.0 | 3.5 | 0.00 | 0.00 | 0.00 | 43 | 1019.0 |
| 20260902005414 | 88 | 213 | 0.0 | 7.0 | 0.00 | 0.00 | 0.00 | 34 | 1019.4 |
| 20260902005344 | 88 | 132 | 0.9 | 7.0 | 0.00 | 0.00 | 0.00 | 30 | 1018.3 |
| 20260902004352 | 88 | 119 | 0.9 | 6.1 | 0.00 | 0.00 | 0.00 | 30 | 1018.7 |
| 20260902003847 | 88 | 133 | 3.5 | 6.1 | 0.00 | 0.00 | 0.00 | 29 | 1018.3 |
| 20260902003347 | 89 | 138 | 0.0 | 8.7 | 0.00 | 0.00 | 0.00 | 29 | 1018.3 |
| 20260902002841 | 89 | 132 | 0.0 | 8.7 | 0.00 | 0.00 | 0.00 | 29 | 1018.3 |
| 20260902002336 | 89 | 151 | 0.0 | 8.7 | 0.00 | 0.00 | 0.00 | 29 | 1018.3 |
| 20260902001815 | 89 | 155 | 1.7 | 7.8 | 0.00 | 0.00 | 0.00 | 29 | 1018.3 |
| 20260902001310 | 89 | 164 | 1.7 | 7.8 | 0.00 | 0.00 | 0.00 | 29 | 1018.3 |
| 20260902000805 | 89 | 119 | 0.0 | 7.0 | 0.00 | 0.00 | 0.00 | 29 | 1018.3 |
| 20260902000258 | 90 | 130 | 0.0 | 9.6 | 0.00 | 0.00 | 0.00 | 29 | 1018.0 |
| 20260901235747 | 90 | 145 | 0.0 | 9.6 | 0.00 | 0.00 | 0.00 | 29 | 1018.0 |
| 20260901235242 | 90 | 144 | 1.7 | 11.3 | 0.00 | 0.00 | 0.00 | 28 | 1018.3 |
| 20260901234732 | 90 | 142 | 6.1 | 11.3 | 0.00 | 0.00 | 0.00 | 28 | 1018.0 |
| 20260901234216 | 90 | 175 | 0.9 | 9.6 | 0.00 | 0.00 | 0.00 | 28 | 1018.3 |
| 20260901233713 | 91 | 118 | 0.9 | 9.6 | 0.00 | 0.00 | 0.00 | 28 | 1018.0 |
| 20260901233212 | 91 | 157 | 6.1 | 12.2 | 0.00 | 0.00 | 0.00 | 28 | 1018.0 |
| 20260901232714 | 91 | 126 | 0.9 | 12.2 | 0.00 | 0.00 | 0.00 | 28 | 1018.3 |
| 20260901232439 | 91 | 94 | 0.9 | 11.3 | 0.00 | 0.00 | 0.00 | 28 | 1018.0 |
| 20260901231713 | 91 | 117 | 6.1 | 11.3 | 0.00 | 0.00 | 0.00 | 28 | 1018.3 |
| 20260901231211 | 90 | 134 | 7.8 | 8.7 | 0.00 | 0.00 | 0.00 | 29 | 1018.3 |
| 20260901230702 | 90 | 106 | 0.0 | 11.3 | 0.00 | 0.00 | 0.00 | 29 | 1018.3 |
| 20260901230203 | 90 | 137 | 0.0 | 11.3 | 0.00 | 0.00 | 0.00 | 29 | 1018.3 |
| 20260901225930 | 91 | 213 | 0.0 | 7.8 | 0.00 | 0.00 | 0.00 | 27 | 1018.0 |
| 20260901225425 | 92 | 90 | 0.0 | 6.1 | 0.00 | 0.00 | 0.00 | 27 | 1018.0 |
| 20260901224645 | 92 | 132 | 2.6 | 3.5 | 0.00 | 0.00 | 0.00 | 27 | 1018.0 |
| 20260901224623 | 92 | 130 | 0.0 | 7.8 | 0.00 | 0.00 | 0.00 | 27 | 1018.0 |
| 20260901223629 | 93 | 120 | 0.9 | 8.7 | 0.00 | 0.00 | 0.00 | 27 | 1018.3 |
| 20260901223123 | 92 | 128 | 0.0 | 7.0 | 0.00 | 0.00 | 0.00 | 26 | 1018.0 |
| 20260901222614 | 92 | 112 | 0.0 | 2.6 | 0.00 | 0.00 | 0.00 | 26 | 1018.3 |
| 20260901222321 | 92 | 134 | 0.0 | 3.5 | 0.00 | 0.00 | 0.00 | 27 | 1018.3 |
| 20260901221555 | 92 | 114 | 1.7 | 12.2 | 0.00 | 0.00 | 0.00 | 27 | 1018.0 |
| 20260901221046 | 93 | 117 | 1.7 | 12.2 | 0.00 | 0.00 | 0.00 | 26 | 1018.3 |
| 20260901220545 | 93 | 97 | 0.0 | 5.2 | 0.00 | 0.00 | 0.00 | 26 | 1018.3 |
| 20260901220034 | 92 | 124 | 0.0 | 11.3 | 0.00 | 0.00 | 0.00 | 28 | 1018.3 |
| 20260901215533 | 92 | 147 | 5.2 | 11.3 | 0.00 | 0.00 | 0.00 | 28 | 1018.3 |
| 20260901215011 | 92 | 126 | 5.2 | 11.3 | 0.00 | 0.00 | 0.00 | 28 | 1018.3 |
| 20260901214505 | 92 | 161 | 0.0 | 11.3 | 0.00 | 0.00 | 0.00 | 27 | 1018.3 |
| 20260901214002 | 92 | 129 | 2.6 | 11.3 | 0.00 | 0.00 | 0.00 | 27 | 1018.7 |
| 20260901213501 | 91 | 104 | 0.0 | 8.7 | 0.00 | 0.00 | 0.00 | 27 | 1018.7 |
| 20260901213002 | 91 | 134 | 0.9 | 7.0 | 0.00 | 0.00 | 0.00 | 28 | 1018.7 |
| 20260901212455 | 91 | 164 | 0.0 | 7.8 | 0.00 | 0.00 | 0.00 | 28 | 1018.7 |
| 20260901211950 | 91 | 164 | 5.2 | 8.7 | 0.00 | 0.00 | 0.00 | 28 | 1019.0 |
| 20260901211445 | 90 | 150 | 0.0 | 8.7 | 0.00 | 0.00 | 0.00 | 29 | 1019.0 |
| 20260901210935 | 90 | 140 | 3.5 | 7.8 | 0.00 | 0.00 | 0.00 | 29 | 1019.0 |
| 20260901210432 | 90 | 158 | 0.0 | 8.7 | 0.00 | 0.00 | 0.00 | 29 | 1019.4 |
| 20260901205931 | 91 | 129 | 0.0 | 8.7 | 0.00 | 0.00 | 0.00 | 28 | 1019.4 |
| 20260901205427 | 92 | 144 | 0.0 | 6.1 | 0.00 | 0.00 | 0.00 | 27 | 1019.4 |
| 20260901205353 | 92 | 170 | 0.0 | 5.2 | 0.00 | 0.00 | 0.00 | 28 | 1019.7 |
| 20260901204409 | 90 | 324 | 0.0 | 7.0 | 0.00 | 0.00 | 0.00 | 29 | 1019.4 |
| 20260901203908 | 92 | 75 | 0.0 | 7.0 | 0.00 | 0.00 | 0.00 | 28 | 1019.4 |
| 20260901203352 | 91 | 128 | 0.0 | 11.3 | 0.00 | 0.00 | 0.00 | 29 | 1019.7 |
| 20260901202838 | 89 | 136 | 0.0 | 11.3 | 0.00 | 0.00 | 0.00 | 30 | 1019.7 |
| 20260901202817 | 90 | 126 | 6.1 | 11.3 | 0.00 | 0.00 | 0.00 | 30 | 1019.7 |
| 20260901201828 | 92 | 133 | 0.9 | 7.8 | 0.00 | 0.00 | 0.00 | 28 | 1019.7 |
| 20260901201318 | 92 | 209 | 0.0 | 5.2 | 0.00 | 0.00 | 0.00 | 29 | 1020.0 |
| 20260901200809 | 91 | 129 | 0.0 | 6.1 | 0.00 | 0.00 | 0.00 | 29 | 1020.0 |
| 20260901200300 | 90 | 165 | 0.0 | 7.0 | 0.00 | 0.00 | 0.00 | 29 | 1019.7 |
| 20260901195753 | 89 | 114 | 2.6 | 13.9 | 0.00 | 0.00 | 0.00 | 31 | 1020.0 |
| 20260901195243 | 89 | 138 | 9.6 | 13.9 | 0.00 | 0.00 | 0.00 | 32 | 1020.0 |
| 20260901194744 | 89 | 136 | 0.0 | 2.6 | 0.00 | 0.00 | 0.00 | 31 | 1020.0 |
| 20260901194234 | 89 | 122 | 0.0 | 7.8 | 0.00 | 0.00 | 0.00 | 31 | 1020.0 |
| 20260901193723 | 91 | 135 | 0.0 | 7.8 | 0.00 | 0.00 | 0.00 | 30 | 1020.4 |
| 20260901193706 | 89 | 184 | 0.0 | 6.1 | 0.00 | 0.00 | 0.00 | 31 | 1020.0 |
| 20260901192906 | 89 | 133 | 3.5 | 8.7 | 0.00 | 0.00 | 0.00 | 31 | 1020.4 |
| 20260901192755 | 90 | 140 | 0.0 | 8.7 | 0.00 | 0.00 | 0.00 | 30 | 1020.0 |
| 20260901191906 | 91 | 163 | 0.9 | 7.0 | 0.00 | 0.00 | 0.00 | 30 | 1020.4 |
| 20260901191142 | 91 | 139 | 0.0 | 11.3 | 0.00 | 0.00 | 0.00 | 29 | 1020.4 |
| 20260901190635 | 91 | 179 | 0.0 | 11.3 | 0.00 | 0.00 | 0.00 | 30 | 1020.7 |
| 20260901190334 | 91 | 199 | 0.9 | 8.7 | 0.00 | 0.00 | 0.00 | 30 | 1020.7 |
| 20260901185611 | 90 | 115 | 0.0 | 7.8 | 0.00 | 0.00 | 0.00 | 30 | 1020.4 |
| 20260901185328 | 90 | 140 | 7.0 | 9.6 | 0.00 | 0.00 | 0.00 | 31 | 1020.4 |
| 20260901184827 | 91 | 104 | 0.9 | 11.3 | 0.00 | 0.00 | 0.00 | 30 | 1021.1 |
| 20260901184057 | 90 | 161 | 0.0 | 11.3 | 0.00 | 0.00 | 0.00 | 30 | 1020.7 |
| 20260901183557 | 89 | 100 | 5.2 | 11.3 | 0.00 | 0.00 | 0.00 | 31 | 1021.1 |
| 20260901183058 | 89 | 136 | 0.9 | 13.0 | 0.00 | 0.00 | 0.00 | 32 | 1020.7 |
| 20260901182558 | 89 | 129 | 0.0 | 7.8 | 0.00 | 0.00 | 0.00 | 32 | 1021.1 |
| 20260901182051 | 88 | 137 | 2.6 | 12.2 | 0.00 | 0.00 | 0.00 | 32 | 1021.1 |
| 20260901181548 | 89 | 128 | 4.3 | 12.2 | 0.00 | 0.00 | 0.00 | 31 | 1021.1 |
| 20260901181037 | 88 | 102 | 0.0 | 8.7 | 0.00 | 0.00 | 0.00 | 32 | 1021.1 |
| 20260901180519 | 88 | 102 | 4.3 | 7.8 | 0.00 | 0.00 | 0.00 | 32 | 1021.1 |
| 20260901180009 | 89 | 117 | 1.7 | 8.7 | 0.00 | 0.00 | 0.00 | 31 | 1021.4 |
| 20260901175501 | 88 | 145 | 0.9 | 8.7 | 0.00 | 0.00 | 0.00 | 32 | 1021.4 |
| 20260901174959 | 88 | 157 | 3.5 | 15.6 | 0.00 | 0.00 | 0.00 | 33 | 1021.1 |
| 20260901174451 | 89 | 118 | 5.2 | 15.6 | 0.00 | 0.00 | 0.00 | 33 | 1021.7 |
| 20260901174214 | 87 | 131 | 0.0 | 11.3 | 0.00 | 0.00 | 0.00 | 34 | 1021.4 |
| 20260901173444 | 88 | 81 | 0.0 | 12.2 | 0.00 | 0.00 | 0.00 | 33 | 1021.4 |
| 20260901172939 | 87 | 140 | 5.2 | 12.2 | 0.00 | 0.00 | 0.00 | 35 | 1021.7 |
| 20260901172434 | 88 | 114 | 0.0 | 9.6 | 0.00 | 0.00 | 0.00 | 34 | 1021.7 |
| 20260901171934 | 87 | 125 | 3.5 | 9.6 | 0.00 | 0.00 | 0.00 | 35 | 1021.7 |
| 20260901171426 | 87 | 129 | 0.9 | 11.3 | 0.00 | 0.00 | 0.00 | 37 | 1021.7 |
| 20260901170915 | 86 | 155 | 0.9 | 12.2 | 0.00 | 0.00 | 0.00 | 38 | 1021.7 |
| 20260901170415 | 86 | 109 | 0.9 | 13.9 | 0.00 | 0.00 | 0.00 | 37 | 1021.7 |
| 20260901165900 | 85 | 120 | 5.2 | 13.9 | 0.00 | 0.00 | 0.00 | 38 | 1021.7 |